Wind_Speed
11 10 10 10 9 9 9 9 8 8 7 6 6 6 6 5 5 5 4 4 3 3 3 3 3 3 3 2 1 0 2 2 4 5 5 5 5 5 5 6 6 6 5
11 10 10 9 9 9 9 9 9 8 7 6 5 5 5 5 5 4 4 3 3 3 3 3 2 3 3 3 1 1 1 2 3 4 4 4 5 5 6 7 7 6 6
10 10 9 9 9 9 9 9 9 8 7 6 5 5 5 5 4 4 3 3 3 2 2 2 2 3 3 2 2 2 1 1 2 3 4 4 5 6 6 7 7 7 6
10 9 9 9 8 9 9 9 9 9 7 6 5 5 5 5 4 3 3 3 2 2 2 2 2 2 2 3 2 1 1 1 2 3 4 4 4 5 6 6 6 6 6
10 9 9 9 8 8 8 9 9 9 7 6 5 5 5 5 4 3 3 3 2 2 2 2 2 2 2 2 1 2 2 2 2 2 3 4 4 5 6 6 6 7 7
10 9 9 9 9 8 8 8 9 8 8 6 6 5 5 5 4 4 3 3 3 3 2 2 2 2 2 2 2 2 3 2 3 3 3 3 3 5 6 6 7 8 7
10 9 8 8 8 8 8 8 8 8 7 6 6 6 6 5 4 3 3 3 3 3 3 3 3 3 2 2 2 3 3 3 3 3 4 4 4 4 5 6 7 7 8
9 8 7 8 8 8 8 8 7 7 7 6 6 6 5 4 3 3 4 3 3 4 4 4 4 3 3 3 3 3 4 4 3 1 2 4 5 6 5 6 7 7 8
9 8 7 7 7 8 8 7 7 7 6 6 6 5 5 4 4 4 4 3 3 4 4 4 4 4 4 4 3 4 4 4 3 3 3 3 4 5 5 7 7 7 7
9 8 7 7 7 8 8 7 7 7 6 5 5 5 5 5 4 4 4 4 4 4 4 4 5 5 5 4 4 4 4 3 4 4 4 3 3 4 5 6 7 7 7
9 7 7 7 7 7 8 7 7 7 6 5 5 5 5 5 5 5 5 5 4 4 4 5 5 5 5 5 5 5 4 4 4 4 4 4 5 5 6 6 7 7 7
8 7 6 6 6 7 8 7 7 7 6 5 5 5 6 6 6 5 5 5 6 6 5 5 5 5 5 5 5 5 4 4 3 4 5 5 5 6 6 7 7 7 7
8 7 6 5 6 7 8 7 7 7 6 5 5 5 6 6 6 5 5 5 6 5 5 4 4 4 4 5 5 5 5 4 4 4 4 4 4 5 5 5 7 7 7
7 7 7 6 6 7 8 8 8 7 6 6 6 6 5 5 6 5 5 5 5 5 4 3 3 3 4 4 5 5 5 5 5 5 4 4 4 5 5 6 6 6 6
8 7 7 7 7 8 8 8 8 7 6 6 6 6 5 5 5 5 5 4 4 4 4 4 4 4 4 4 4 5 5 6 5 5 5 5 5 6 6 6 7 6 7
9 8 8 8 8 8 8 8 8 7 6 7 6 6 5 6 6 4 4 4 4 5 5 5 4 4 5 5 5 5 5 5 6 6 6 6 6 6 6 7 7 8 8
9 9 9 9 8 9 9 9 9 7 7 7 6 6 6 6 7 6 5 5 5 5 5 6 6 5 5 5 5 5 5 6 7 7 7 7 7 8 8 8 8 8 8
9 10 10 9 9 9 9 9 9 8 7 7 6 7 7 7 7 7 6 6 6 6 5 6 7 7 6 6 6 6 6 7 7 7 8 8 8 8 9 9 9 10 10
10 11 9 9 9 10 10 9 9 9 8 8 8 8 8 8 8 7 7 7 7 8 7 7 7 7 7 7 7 7 7 7 8 8 8 9 9 10 10 10 10 11 11
11 11 9 9 9 9 9 9 10 10 9 8 8 9 9 9 9 8 8 8 9 9 9 8 8 8 8 8 8 7 8 8 8 8 9 9 9 10 10 11 11 11 11
11 10 10 10 10 9 9 9 9 9 8 8 9 9 9 9 9 9 9 9 10 10 10 9 9 8 8 9 9 9 9 8 9 9 9 9 10 11 11 11 12 12 12
12 11 11 11 11 10 11 10 9 9 9 10 10 10 10 10 10 10 10 10 10 11 11 11 10 9 9 10 10 11 11 11 10 10 10 11 11 11 12 12 12 13 13
14 13 12 12 12 12 11 11 10 11 11 11 11 11 11 11 11 11 11 11 12 12 12 12 11 11 11 11 11 12 12 11 11 11 12 12 12 13 13 13 13 13 13
15 14 14 13 13 13 13 12 12 12 12 12 12 12 12 12 12 12 12 12 12 12 13 13 13 12 12 12 12 13 12 13 12 12 13 13 13 13 13 14 14 14 14
16 16 15 15 15 15 14 14 14 13 13 13 14 14 14 13 13 13 13 12 12 13 13 13 13 13 13 13 13 14 14 14 14 14 13 14 14 14 14 14 14 15 15
17 17 17 16 16 16 16 16 16 16 15 15 16 16 16 15 15 14 14 14 14 13 13 14 14 14 14 14 14 15 15 15 15 15 15 15 15 15 15 15 15 15 16
Wind_Direction
10 10 13 16 19 23 25 24 21 19 14 12 11 10 8 6 7 5 3 6 12 20 13 8 358 4 4 358 354 220 208 207 215 206 211 213 212 217 210 202 201 205 210
8 9 10 12 15 19 21 20 17 15 10 9 5 1 359 359 359 359 359 358 3 13 16 18 359 357 351 349 352 354 195 197 210 212 220 219 215 218 211 210 211 213 218
3 7 7 8 14 18 18 18 15 12 10 6 1 358 357 358 359 355 350 346 350 358 4 9 4 354 343 341 328 321 223 216 215 211 218 218 217 222 219 218 217 214 218
358 2 5 5 11 16 17 17 16 14 13 10 6 4 358 355 352 350 341 331 325 335 346 355 358 351 337 324 308 308 303 264 227 220 227 225 220 224 220 219 215 209 212
353 358 2 5 11 16 18 17 17 18 18 13 13 9 358 348 341 335 329 319 306 306 318 325 333 338 338 330 319 303 291 269 229 239 230 232 226 221 215 215 216 213 215
350 356 2 8 12 15 18 16 14 16 18 15 13 10 359 343 333 329 330 322 306 296 296 296 302 314 319 320 309 293 288 279 255 241 236 222 225 220 211 213 218 216 219
350 357 5 11 14 14 15 14 10 10 10 13 11 5 356 346 336 332 327 315 305 291 285 286 296 297 304 304 301 295 282 272 276 236 230 227 219 212 212 215 216 218 219
352 0 7 10 12 14 14 11 7 6 5 6 1 357 354 347 342 335 332 319 308 298 287 283 280 284 287 298 299 290 285 272 260 259 233 222 209 212 217 223 223 226 221
348 355 360 1 6 9 8 8 5 0 0 360 358 354 355 350 340 334 321 312 299 290 288 289 286 283 284 285 283 287 295 289 270 269 263 244 223 211 213 217 219 219 221
341 348 356 358 1 2 359 359 356 351 351 350 350 345 347 342 334 325 320 309 300 295 289 283 284 282 283 285 287 286 282 279 275 273 271 261 248 236 224 217 219 221 233
336 337 347 352 355 355 353 350 350 350 350 348 343 342 339 336 330 320 313 312 301 294 294 288 285 281 277 281 289 292 280 275 276 271 272 262 239 232 231 221 220 225 230
335 334 336 340 346 348 348 344 342 344 346 346 347 342 337 334 327 317 309 308 299 291 293 290 288 280 272 276 283 286 283 273 276 267 264 262 241 226 228 230 227 232 238
336 336 332 330 336 337 338 340 339 335 338 338 335 329 330 329 326 315 308 305 296 290 286 287 281 279 275 274 278 281 286 271 270 271 252 252 244 238 239 240 238 238 242
333 332 330 325 330 333 332 333 332 328 323 321 317 314 316 319 321 317 309 306 298 291 291 294 282 278 278 272 267 272 274 278 276 275 266 254 253 252 249 238 236 238 242
321 326 324 323 323 325 327 327 326 323 314 309 313 311 307 307 310 314 309 305 294 285 277 278 275 267 271 274 267 267 268 275 276 278 279 269 254 260 269 254 251 251 254
314 316 321 321 323 322 323 323 324 322 315 309 310 308 302 303 303 299 296 296 287 276 270 269 270 265 271 273 272 275 270 273 270 266 277 278 265 263 265 262 261 262 256
307 309 315 317 319 319 319 320 319 315 312 313 309 308 306 304 298 289 280 282 282 280 270 267 268 267 271 276 275 278 276 276 272 264 267 270 271 269 268 266 267 269 263
301 305 308 313 314 313 314 314 312 308 309 309 307 305 304 303 299 288 280 281 275 272 271 265 263 261 264 272 276 278 276 275 273 267 265 267 268 265 264 265 266 267 268
300 302 303 307 307 311 315 316 317 312 309 310 306 301 297 296 295 290 282 281 274 267 265 262 262 264 268 270 275 276 275 276 275 272 269 268 269 267 263 264 266 265 267
296 298 298 303 304 308 315 316 313 313 306 304 303 298 291 291 291 290 285 277 271 264 263 262 263 267 272 270 271 275 277 276 273 272 272 271 269 269 268 266 266 265 264
292 296 296 301 310 309 308 310 306 309 306 302 302 303 301 295 294 290 285 276 270 264 261 263 265 270 277 275 272 272 275 277 277 274 274 272 270 268 269 269 268 268 268
282 288 291 297 302 304 302 303 303 304 301 300 301 301 300 298 295 293 287 279 272 264 260 261 263 269 275 278 274 272 275 277 278 279 278 275 274 273 272 271 270 269 269
282 282 285 290 293 294 293 292 293 293 297 295 296 297 299 297 293 291 286 276 270 261 258 260 262 267 273 277 276 274 273 275 277 278 278 279 277 274 274 275 274 273 274
278 277 278 282 286 287 285 285 287 290 291 293 292 291 293 294 292 289 286 278 269 261 258 260 264 267 272 277 275 274 271 271 273 275 276 276 277 275 275 275 275 274 275
274 275 273 275 281 281 280 282 282 283 287 289 290 289 289 289 287 285 280 276 270 262 259 261 265 268 271 274 275 275 275 272 272 271 272 275 277 277 276 274 273 272 272
271 274 273 272 276 276 278 280 279 279 281 286 288 288 287 286 284 282 280 275 271 266 264 264 268 272 272 273 274 275 275 274 273 272 272 273 276 277 277 273 272 272 272
Height
5877 5876 5875 5873 5872 5871 5870 5869 5869 5868 5868 5868 5868 5868 5868 5868 5868 5868 5869 5869 5869 5869 5869 5869 5869 5870 5869 5869 5869 5869 5870 5871 5871 5872 5873 5874 5875 5876 5877 5878 5879 5880 5881
5878 5876 5875 5873 5872 5871 5870 5869 5869 5868 5868 5868 5868 5868 5868 5868 5868 5868 5869 5869 5869 5869 5869 5869 5869 5870 5869 5869 5869 5869 5869 5870 5870 5871 5872 5873 5874 5875 5876 5877 5878 5880 5881
5878 5876 5875 5874 5872 5871 5870 5869 5868 5868 5867 5867 5868 5868 5868 5868 5868 5868 5868 5868 5869 5869 5869 5869 5869 5869 5869 5869 5869 5869 5869 5870 5870 5871 5872 5873 5874 5875 5876 5877 5878 5879 5880
5878 5876 5875 5874 5872 5871 5870 5869 5868 5867 5866 5867 5867 5868 5868 5868 5868 5868 5868 5868 5868 5869 5869 5869 5869 5869 5869 5869 5869 5869 5869 5870 5870 5871 5871 5872 5873 5874 5875 5876 5877 5878 5879
5878 5876 5875 5874 5872 5871 5870 5869 5868 5867 5866 5867 5867 5867 5867 5867 5867 5867 5867 5867 5868 5868 5869 5869 5869 5869 5869 5869 5869 5869 5869 5869 5870 5870 5871 5871 5872 5873 5874 5875 5875 5876 5878
5878 5876 5875 5874 5872 5871 5870 5870 5869 5868 5867 5867 5867 5867 5867 5867 5867 5867 5867 5867 5867 5868 5868 5868 5868 5868 5868 5868 5868 5868 5869 5869 5869 5870 5870 5871 5871 5872 5872 5874 5875 5876 5877
5877 5876 5874 5873 5872 5871 5870 5870 5869 5868 5868 5867 5867 5867 5867 5866 5866 5866 5867 5867 5867 5867 5867 5868 5868 5868 5868 5868 5868 5868 5868 5868 5868 5868 5869 5870 5871 5871 5872 5873 5874 5875 5876
5877 5876 5874 5873 5872 5871 5870 5870 5869 5869 5868 5867 5867 5867 5866 5866 5866 5866 5866 5866 5866 5866 5866 5867 5867 5867 5867 5867 5867 5867 5867 5868 5867 5867 5868 5869 5869 5870 5871 5872 5873 5873 5874
5877 5875 5874 5873 5872 5871 5871 5870 5869 5868 5868 5867 5867 5867 5866 5866 5865 5865 5865 5865 5865 5865 5866 5866 5866 5866 5866 5866 5867 5866 5867 5867 5867 5867 5867 5868 5868 5869 5869 5870 5871 5872 5874
5877 5875 5874 5873 5872 5871 5870 5870 5869 5868 5868 5867 5867 5866 5866 5865 5865 5865 5864 5864 5864 5864 5864 5865 5865 5865 5866 5866 5866 5866 5866 5866 5866 5866 5866 5867 5867 5868 5868 5869 5870 5871 5872
5876 5875 5874 5873 5872 5871 5870 5869 5869 5868 5867 5867 5866 5866 5865 5865 5864 5864 5864 5863 5863 5863 5863 5864 5864 5864 5865 5865 5865 5865 5865 5865 5865 5865 5865 5866 5866 5867 5867 5868 5869 5870 5871
5875 5874 5873 5872 5871 5871 5870 5869 5868 5868 5867 5866 5865 5865 5865 5864 5864 5863 5863 5862 5862 5862 5862 5863 5863 5863 5864 5864 5864 5865 5865 5865 5865 5865 5865 5865 5865 5865 5866 5867 5868 5869 5870
5875 5873 5872 5872 5871 5870 5870 5869 5868 5867 5867 5866 5865 5865 5864 5864 5863 5862 5862 5862 5861 5861 5861 5861 5862 5862 5863 5863 5863 5864 5864 5864 5864 5864 5865 5865 5865 5865 5865 5866 5867 5867 5868
5874 5873 5872 5871 5870 5870 5869 5868 5867 5867 5866 5865 5865 5864 5863 5863 5862 5862 5861 5861 5860 5860 5860 5861 5861 5861 5862 5862 5863 5863 5863 5863 5863 5863 5863 5864 5864 5864 5864 5865 5865 5866 5867
5873 5872 5871 5870 5870 5869 5868 5867 5866 5865 5865 5864 5864 5863 5862 5862 5861 5861 5860 5860 5859 5859 5860 5860 5860 5861 5861 5861 5861 5862 5862 5862 5862 5862 5862 5863 5863 5863 5863 5863 5864 5865 5865
5872 5871 5870 5869 5868 5867 5867 5866 5865 5864 5863 5863 5862 5862 5861 5861 5860 5860 5859 5859 5859 5859 5859 5859 5860 5860 5860 5861 5861 5860 5861 5861 5861 5860 5861 5861 5862 5862 5862 5863 5863 5863 5863
5870 5869 5868 5868 5867 5867 5865 5864 5863 5863 5862 5861 5861 5860 5860 5859 5859 5858 5858 5858 5857 5857 5857 5858 5858 5859 5859 5859 5859 5859 5859 5859 5859 5859 5859 5859 5860 5860 5861 5861 5861 5862 5862
5868 5867 5866 5866 5866 5865 5864 5863 5862 5861 5860 5860 5859 5858 5858 5857 5857 5857 5856 5856 5856 5856 5856 5857 5857 5858 5858 5858 5858 5858 5858 5858 5858 5858 5858 5858 5858 5858 5859 5859 5860 5860 5860
5866 5865 5864 5864 5864 5863 5863 5862 5861 5860 5859 5858 5857 5856 5856 5855 5855 5855 5854 5854 5854 5854 5855 5855 5855 5856 5856 5856 5856 5856 5856 5856 5856 5856 5856 5856 5856 5856 5857 5857 5857 5857 5858
5863 5862 5862 5862 5862 5861 5861 5860 5859 5858 5857 5857 5856 5855 5854 5853 5853 5853 5852 5852 5852 5852 5853 5853 5853 5854 5854 5854 5854 5854 5854 5854 5854 5854 5854 5854 5854 5854 5854 5854 5855 5855 5855
5861 5861 5861 5860 5860 5859 5858 5858 5857 5857 5856 5855 5854 5853 5852 5851 5851 5850 5850 5850 5850 5850 5851 5851 5851 5852 5852 5852 5852 5853 5853 5852 5852 5852 5852 5852 5852 5852 5852 5852 5852 5852 5852
5859 5858 5858 5858 5858 5857 5857 5856 5855 5854 5854 5853 5853 5852 5851 5850 5849 5848 5848 5848 5848 5848 5848 5849 5849 5849 5850 5850 5850 5850 5850 5851 5850 5850 5850 5849 5849 5849 5849 5849 5848 5849 5849
5856 5856 5855 5855 5855 5855 5854 5853 5853 5852 5851 5851 5850 5849 5848 5847 5847 5846 5845 5845 5845 5845 5846 5846 5846 5847 5847 5847 5847 5847 5848 5847 5847 5847 5847 5846 5846 5846 5846 5845 5845 5845 5845
5852 5852 5852 5852 5852 5851 5851 5851 5850 5850 5849 5848 5848 5847 5846 5845 5844 5844 5843 5842 5842 5842 5843 5843 5843 5844 5844 5844 5844 5844 5844 5844 5844 5844 5844 5843 5843 5843 5842 5842 5842 5842 5841
5848 5848 5848 5848 5848 5848 5848 5848 5847 5847 5846 5845 5845 5844 5843 5842 5841 5841 5840 5839 5839 5839 5840 5840 5840 5841 5841 5841 5841 5840 5840 5840 5840 5840 5840 5840 5839 5839 5839 5839 5838 5838 5838
5843 5843 5843 5844 5844 5844 5844 5844 5844 5843 5843 5842 5841 5840 5839 5839 5838 5838 5837 5836 5836 5836 5836 5837 5837 5837 5837 5837 5837 5836 5836 5836 5836 5836 5836 5836 5835 5835 5835 5834 5834 5834 5834